Regional Weather Roundup
Issued by NWS

Home | Current Version | Previous Version | Graphics & Text | Print | Product List | Glossary On
Versions: 1 2 3 4 5 6 7 8 9 10 11 12 13 14 15 16 17 18 19 20 21 22 23 24 25 26 27 28 29 30 31 32 33 34 35 36 37 38 39 40 41 42 43 44 45 46 47 48 49 50
000
ASUS43 KMKX 180010
RWRWI

WISCONSIN REGIONAL WEATHER ROUNDUP
NATIONAL WEATHER SERVICE MILWAUKEE/SULLIVAN WI
600 PM CST SAT FEB 17 2018

NOTE: "FAIR" INDICATES FEW OR NO CLOUDS BELOW 12,000 FEET WITH NO
SIGNIFICANT WEATHER AND/OR OBSTRUCTIONS TO VISIBILITY.

WIZ001-002-006>008-014>016-023>028-180100-
NORTHWEST WISCONSIN

CITY           SKY/WX    TMP DP  RH WIND       PRES   REMARKS
SUPERIOR ARPT  FAIR      26  11  52 W8        29.89R WCI  18
6HR MIN TEMP:  26; 6HR MAX TEMP:  32;

ASHLAND        MOCLDY    28  12  51 W15G22    29.87R WCI  16
6HR MIN TEMP:  27; 6HR MAX TEMP:  33;

HAYWARD        CLOUDY    30  11  45 W7G16     29.86R WCI  23
6HR MIN TEMP:  28; 6HR MAX TEMP:  35;

SIREN          FAIR      28   9  45 NW10G18   29.91R WCI  18
6HR MIN TEMP:  28; 6HR MAX TEMP:  35;

CUMBERLAND     FAIR      27  10  50 W12       29.89R WCI  16
RICE LAKE      FAIR      29  11  47 W10       29.91R WCI  20
6HR MIN TEMP:  28; 6HR MAX TEMP:  33;

CHETEK         FAIR      30  15  53 W5        29.90R WCI  25
6HR MIN TEMP:  28; 6HR MAX TEMP:  33;

LADYSMITH      CLOUDY    31  17  56 W10       29.88R WCI  22
6HR MIN TEMP:  26; 6HR MAX TEMP:  32;

EAU CLAIRE     FAIR      27  21  78 SW10      29.92R WCI  17
6HR MIN TEMP:  26; 6HR MAX TEMP:  29; 6HR PCP: TRACE;

MENOMONIE      FAIR      30  23  75 SW9       29.92R WCI  22
6HR MIN TEMP:  28; 6HR MAX TEMP:  32;

NEW RICHMOND   FAIR      30  10  43 NW12      29.94R WCI  20
6HR MIN TEMP:  30; 6HR MAX TEMP:  36;

OSCEOLA        FAIR      30  10  43 W15       29.97R WCI  19
6HR MIN TEMP:  30; 6HR MAX TEMP:  37;

$$

WIZ003>005-009-010-017-018-180100-
NORTH CENTRAL WISCONSIN

CITY           SKY/WX    TMP DP  RH WIND       PRES   REMARKS
MANITOWISH WTR CLOUDY    27  14  57 NW7       29.79R WCI  19
6HR MIN TEMP:  24; 6HR MAX TEMP:  30;

ARBOR VITAE    FAIR      29  21  71 W7        29.79R WCI  22
6HR MIN TEMP:  26; 6HR MAX TEMP:  32;

WOODRUFF       FAIR      29  21  71 W7        29.79R WCI  22
6HR MIN TEMP:  26; 6HR MAX TEMP:  32;

RHINELANDER    CLOUDY    26  19  74 SW7       29.80R WCI  18
6HR MIN TEMP:  22; 6HR MAX TEMP:  28;

EAGLE RIVER    FAIR      26  16  68 W9        29.77R WCI  16
6HR MIN TEMP:  23; 6HR MAX TEMP:  29;

LAND O LAKES   CLOUDY    29  16  58 NW10G16   29.79R WCI  19
PHILLIPS       CLOUDY    29  18  62 W8        29.82R WCI  21
6HR MIN TEMP:  23; 6HR MAX TEMP:  29;

TOMAHAWK       MOCLDY    25  19  79 S3        29.83R
6HR MIN TEMP:  22; 6HR MAX TEMP:  28;

MEDFORD        MOCLDY    23  19  85 SW7       29.86R WCI  15
6HR MIN TEMP:  20; 6HR MAX TEMP:  25;

MERRILL        CLOUDY    25  20  83 SW10      29.86R WCI  15
6HR MIN TEMP:  22; 6HR MAX TEMP:  26;

$$

WIZ029-030-035-036-043>047-180100-
CENTRAL WISCONSIN

CITY           SKY/WX    TMP DP  RH WIND       PRES   REMARKS
WAUSAU         CLOUDY    25  20  81 W12       29.88R WCI  14
6HR MIN TEMP:  21; 6HR MAX TEMP:  25; 6HR PCP:  0.02;

MOSINEE        CLOUDY    25  21  86 W12       29.90R WCI  14
MARSHFIELD     CLOUDY    25  21  85 W10       29.89R WCI  15
6HR MIN TEMP:  22; 6HR MAX TEMP:  26; 6HR PCP: TRACE;

STEVENS POINT  CLOUDY    25  20  83 W9G16     29.90R WCI  15
6HR MIN TEMP:  20; 6HR MAX TEMP:  25;

WAUPACA        CLOUDY    29  23  76 SW9       29.92R WCI  21
6HR MIN TEMP:  27; 6HR MAX TEMP:  29;

WAUTOMA        MOCLDY    27  22  81 SW8       29.94R WCI  19
6HR MIN TEMP:  24; 6HR MAX TEMP:  28; 6HR PCP: TRACE;

WISC RAPIDS    CLOUDY    27  20  75 W8        29.93R WCI  19
6HR MIN TEMP:  23; 6HR MAX TEMP:  27; 6HR PCP:  0.03;

CAMP DOUGLAS   CLOUDY    28  23  82 W8        29.95R WCI  20
6HR MIN TEMP:  26; 6HR MAX TEMP:  30; 6HR PCP: TRACE;

$$

WIZ011>013-019>022-031-037>040-048>050-180100-
NORTHEAST WISCONSIN

CITY           SKY/WX    TMP DP  RH WIND       PRES   REMARKS
ANTIGO         CLOUDY    23  19  86 W12G20    29.85R WCI  12
6HR MIN TEMP:  20; 6HR MAX TEMP:  24;

SHAWANO        CLOUDY    28  22  78 SW8       29.88R WCI  20
6HR MIN TEMP:  26; 6HR MAX TEMP:  28;

OCONTO         MOCLDY    25  20  82 SW9       29.88R WCI  16
6HR MIN TEMP:  24; 6HR MAX TEMP:  27;

STURGEON BAY   MOCLDY    25  21  85 SW10      29.88R WCI  15
6HR MIN TEMP:  23; 6HR MAX TEMP:  25; 6HR PCP: TRACE;

GREEN BAY      CLOUDY    26  21  81 SW8       29.90R WCI  18
6HR MIN TEMP:  24; 6HR MAX TEMP:  26; 6HR PCP:  0.05;

MANITOWOC      MOCLDY    25  21  85 SW9       29.93R WCI  15
6HR MIN TEMP:  25; 6HR MAX TEMP:  31; 6HR PCP: TRACE;

APPLETON       MOCLDY    27  21  80 SW10      29.89R WCI  17
CLINTONVILLE   CLOUDY    27  21  77 SW9       29.90R WCI  18
6HR MIN TEMP:  25; 6HR MAX TEMP:  27;

OSHKOSH        CLOUDY    27  22  81 VRB5      29.93R WCI  22
6HR MIN TEMP:  24; 6HR MAX TEMP:  27; 6HR PCP: TRACE;

$$

WIZ032>034-041-042-053>061-180100-
SOUTHWEST WISCONSIN

CITY           SKY/WX    TMP DP  RH WIND       PRES   REMARKS
LA CROSSE      CLOUDY    31  24  75 W8        29.99R WCI  23
6HR MIN TEMP:  25; 6HR MAX TEMP:  32; 6HR PCP:  0.02;

SPARTA         CLOUDY    28  24  82 SW5       29.97R WCI  23
6HR MIN TEMP:  25; 6HR MAX TEMP:  29; 6HR PCP:  0.01;

VIROQUA        CLOUDY    27  25  91 W8        29.96R WCI  19
6HR MIN TEMP:  23; 6HR MAX TEMP:  28;

BOSCOBEL       CLOUDY    30  22  72 SW7       30.02R WCI  23
6HR MIN TEMP:  27; 6HR MAX TEMP:  31; 6HR PCP:  0.03;

PRAIRIE DU CHI CLOUDY    30  23  74 W6        30.04R WCI  24
6HR MIN TEMP:  26; 6HR MAX TEMP:  31; 6HR PCP:  0.03;

PLATTEVILLE    FAIR      27  24  87 W13       30.01R WCI  16
6HR MIN TEMP:  27; 6HR MAX TEMP:  29;

$$

WIZ056-057-062-063-064-067-068-180100-
SOUTH CENTRAL WISCONSIN

CITY           SKY/WX    TMP DP  RH WIND       PRES   REMARKS
REEDSBURG      CLOUDY    28  22  79 W6        29.96R WCI  21
6HR MIN TEMP:  25; 6HR MAX TEMP:  29;

BARABOO/DELLS  CLOUDY    28  22  79 W8        29.96R WCI  19
6HR MIN TEMP:  24; 6HR MAX TEMP:  29;

LONE ROCK      CLOUDY    29  23  78 W6        30.00R WCI  23
6HR MIN TEMP:  26; 6HR MAX TEMP:  29; 6HR PCP:  0.02;

MINERAL POINT  MOCLDY    28  27  93 W12       29.98R WCI  18
MADISON        CLOUDY    28  22  78 W9G18     29.98R WCI  19
6HR MIN TEMP:  27; 6HR MAX TEMP:  29; 6HR PCP:  0.03;

MIDDLETON      CLOUDY    29  24  80 W10       29.98R WCI  20
6HR MIN TEMP:  29; 6HR MAX TEMP:  32;

WATERTOWN      CLOUDY    28  28 100 W3        29.95R
6HR MIN TEMP:  26; 6HR MAX TEMP:  28;

MONROE         CLOUDY    28  23  80 W14       29.98R WCI  17
JANESVILLE     CLOUDY    30  28  93 W14       29.94S WCI  20
$$

WIZ051-052-058>065-066-070>072-180100-
SOUTHEAST WISCONSIN

CITY           SKY/WX    TMP DP  RH WIND       PRES   REMARKS
MILWAUKEE      LGT SNOW  31  28  89 VRB6      29.95R FOG     WCI  25
6HR MIN TEMP:  31; 6HR MAX TEMP:  33; 6HR PCP:  0.01;

WAUKESHA       CLOUDY    27  25  93 W5        29.96R WCI  21
MILWAUKEE/TIMM LGT SNOW  28  25  86 SW5       29.96R WCI  23
RACINE         CLOUDY    31  29  92 W3        29.98R FOG
6HR MIN TEMP:  30; 6HR MAX TEMP:  34; 6HR PCP: TRACE;

BURLINGTON     FLURRIES  29  26  89 W5        29.97R WCI  24
6HR MIN TEMP:  29; 6HR MAX TEMP:  32;

KENOSHA        LGT SNOW  31  28  89 W9        29.96R FOG     WCI  23
6HR MIN TEMP:  31; 6HR MAX TEMP:  35; 6HR PCP: TRACE;

FOND DU LAC    CLOUDY    28  22  78 W7        29.94R WCI  21
6HR MIN TEMP:  24; 6HR MAX TEMP:  28; 6HR PCP: TRACE;

SHEBOYGAN      MOCLDY    26  23  88 SW9       29.93R WCI  17
6HR MIN TEMP:  25; 6HR MAX TEMP:  31; 6HR PCP:  0.01;

WEST BEND      CLOUDY    28  27  93 W10       29.94R WCI  19
JUNEAU         CLOUDY    26  24  92 SW8       29.96R WCI  18
6HR MIN TEMP:  24; 6HR MAX TEMP:  27;

$$

LSZ147-162-180100-
LAKE SUPERIOR

STATION/POSITION TIME  TEMP    WIND        PRES    WAVE
                       AIR SEA DIR/SP/G            HT/PER
                 (UTC) (F)     (DEG/KT/KT) (MB)    (FT/S)
DEVILS ISLAND    0000   27     270/ 19/ 22 1011.5R
SAXON HARBOR     2340   29     290/  5/ 12 1010.5R
$$

LMZ867-665-643>646-180100-
LAKE MICHIGAN

STATION/POSITION TIME  TEMP    WIND        PRES    WAVE
                       AIR SEA DIR/SP/G            HT/PER



USA.gov is the U.S. government's official web portal to all federal, state and local government web resources and services.